This is the latest recevied weather packets stored in our database for station/object ED4YAF-13. If no packets are shown the sender has not sent any weather packets the latest 10 day(s).
| Time | Temp. | Humidity | Pressure | Rain* | Wind** | Luminosity | Snow |
|---|---|---|---|---|---|---|---|
| 1788432180 | 26.11° C | 28% | 1018.2 hPa | - | - | - | - |
| 1788431287 | 26.67° C | 27% | 1017.8 hPa | - | - | - | - |
| 1788430425 | 26.11° C | 28% | 1018.3 hPa | - | - | - | - |
| 1788430385 | 26.11° C | 28% | 1018.3 hPa | - | - | - | - |
| 1788429579 | 25° C | 30% | 1019.1 hPa | - | - | - | - |
| 1788429485 | 25° C | 30% | 1019.1 hPa | - | - | - | - |
| 1788428577 | 23.89° C | 31% | 1019.5 hPa | - | - | - | - |
| 1788427661 | 23.89° C | 31% | 1019.4 hPa | - | - | - | - |
| 1788426744 | 23.89° C | 31% | 1019.3 hPa | - | - | - | - |
| 1788425844 | 23.89° C | 32% | 1019.4 hPa | - | - | - | - |
| 1788424938 | 23.33° C | 32% | 1019.8 hPa | - | - | - | - |
| 1788424114 | 22.78° C | 32% | 1019.7 hPa | - | - | - | - |
| 1788424039 | 22.78° C | 32% | 1019.7 hPa | - | - | - | - |
| 1788423129 | 22.22° C | 33% | 1020.1 hPa | - | - | - | - |
| 1788422229 | 21.67° C | 33% | 1020.5 hPa | - | - | - | - |
| 1788421329 | 21.11° C | 31% | 1020.9 hPa | - | - | - | - |
| 1788419521 | 20.56° C | 33% | 1021.2 hPa | - | - | - | - |
| 1788416998 | 19.44° C | 38% | 1021.6 hPa | - | - | - | - |
| 1788416085 | 19.44° C | 39% | 1021.6 hPa | - | - | - | - |
| 1788415186 | 18.89° C | 39% | 1021.6 hPa | - | - | - | - |
| 1788414293 | 18.89° C | 39% | 1021.7 hPa | - | - | - | - |
| 1788413380 | 18.89° C | 39% | 1021.5 hPa | - | - | - | - |
| 1788412457 | 18.89° C | 39% | 1021.4 hPa | - | - | - | - |
| 1788411551 | 18.89° C | 39% | 1021.3 hPa | - | - | - | - |
| 1788410651 | 18.89° C | 39% | 1021.2 hPa | - | - | - | - |
* Rain since midnight (hover to see other rain measurements)
** Current wind speed in m/s (hover to see current wind gust speed)